Wind_Speed
38 38 38 37 36 34 31 29 29 28 25 23 22 22 22 21 21 19 17 17 18 17 16 15 14 13 13 13 13 13 13 12 11 11 12 12 12 13 14 13 14 14 14 13 13 13 14 15 16 16 15 14 15 15 16 17 17 18 17 16 16 14 14 14 10 10 18 22 23 27 30 29 29 31 33 34 34 34 33 33 33 32 32 32 32
38 37 37 36 35 34 32 31 30 29 26 24 23 22 22 21 20 19 18 18 19 18 17 16 15 15 15 15 15 16 16 15 15 13 12 12 12 13 14 15 15 15 16 16 15 15 15 16 17 17 17 17 17 17 17 18 19 20 20 20 21 20 18 17 13 10 15 21 23 27 30 29 28 30 32 33 34 34 33 33 33 32 32 32 32
36 33 33 35 35 34 33 32 32 30 27 26 25 23 21 20 20 20 19 19 20 19 18 17 16 16 16 17 18 19 19 18 18 17 15 13 13 13 14 15 16 16 17 16 16 15 16 17 18 18 17 18 18 17 18 19 19 21 23 23 23 24 22 20 17 13 15 19 22 24 28 30 30 30 31 33 33 32 32 33 32 32 32 32 32
32 32 33 35 34 33 33 33 33 31 29 27 26 23 21 20 19 19 20 20 20 19 18 17 17 17 18 20 21 21 21 21 21 21 19 16 14 14 14 14 15 15 16 16 15 14 15 16 17 17 16 17 18 18 18 19 20 21 24 25 25 26 25 23 21 18 16 18 22 24 26 28 30 31 31 31 31 30 30 31 31 31 31 30 30
34 35 35 34 33 34 34 33 34 33 30 28 27 24 21 18 18 19 21 21 20 18 17 17 17 18 20 21 20 19 19 19 20 21 20 18 16 15 15 15 15 14 15 15 14 14 14 16 17 16 16 17 18 19 18 18 19 19 22 24 26 27 27 25 24 22 19 18 21 24 26 28 29 31 31 29 29 30 31 30 30 30 30 30 30
35 34 33 34 35 35 34 34 35 34 32 29 27 25 21 17 17 20 23 21 18 17 17 17 17 18 19 18 17 16 15 15 16 16 18 18 18 17 18 17 16 15 15 15 14 14 14 15 16 16 16 18 18 18 18 18 18 18 20 22 24 26 27 27 25 23 21 20 20 23 26 28 28 29 30 29 27 29 30 30 30 30 29 29 30
35 35 36 36 36 36 36 36 36 35 33 30 28 25 22 18 20 24 24 21 18 17 17 17 17 17 17 17 16 15 13 12 13 14 15 17 18 18 19 18 18 17 16 16 16 15 15 15 15 16 16 17 18 17 17 17 17 18 20 21 22 23 25 25 25 23 22 20 19 20 24 26 27 28 29 29 28 27 27 26 28 31 31 28 29
36 39 40 38 36 37 38 37 36 35 32 30 27 25 22 20 23 26 25 22 20 18 18 18 18 17 17 17 16 15 13 13 13 13 14 15 16 16 17 17 18 17 17 17 17 17 17 16 15 16 16 16 17 16 16 16 17 19 20 20 19 20 22 23 24 23 21 19 20 20 21 24 27 28 28 27 25 24 25 24 24 29 32 30 30
38 40 40 39 38 39 38 36 35 34 31 29 27 24 21 22 26 27 25 23 21 20 19 19 18 18 18 18 16 15 14 13 13 13 13 14 15 15 15 16 17 17 17 18 18 19 18 17 16 16 16 16 16 15 15 16 18 20 21 20 18 19 20 22 23 21 20 19 20 20 18 20 24 25 24 24 23 25 28 27 25 28 31 32 32
39 39 41 41 39 38 37 35 33 32 30 29 26 22 22 27 30 28 26 24 23 21 21 20 19 19 18 17 17 16 15 14 14 14 14 14 15 15 16 16 16 17 18 19 20 20 19 18 17 16 16 16 15 15 16 16 17 19 19 18 18 19 19 21 22 20 19 20 21 19 16 17 23 24 22 25 28 28 28 26 25 28 29 27 28
39 40 42 39 36 35 34 33 31 30 29 27 24 23 27 31 31 29 27 26 25 23 23 22 20 18 18 17 17 17 17 16 16 15 14 14 16 17 17 18 18 18 20 21 22 22 21 19 18 17 16 16 15 15 15 16 16 17 17 17 17 18 19 21 22 21 20 21 21 20 17 17 23 26 25 26 28 27 27 26 25 26 24 19 19
39 41 40 35 33 35 34 30 29 29 27 25 26 29 32 33 32 31 30 28 27 26 25 24 21 18 17 17 18 19 19 18 18 17 16 16 16 17 18 19 20 21 22 22 23 23 22 21 19 18 18 16 16 16 15 15 15 16 17 17 17 17 18 19 22 23 22 21 21 22 21 20 23 27 26 25 26 27 28 28 26 24 24 20 18
37 35 32 27 31 34 32 29 30 30 27 26 29 32 33 34 34 33 32 30 28 27 27 24 21 18 18 18 19 20 19 19 19 19 19 18 17 17 18 20 21 22 22 23 24 24 22 21 20 20 19 17 16 16 16 17 16 16 17 17 18 18 18 18 21 23 24 24 23 25 25 23 23 27 28 26 27 28 28 27 27 25 24 24 24
23 18 14 16 24 30 30 29 29 28 28 31 33 32 32 34 35 35 33 30 28 27 26 23 21 19 19 19 20 20 20 20 20 20 20 19 18 18 19 20 21 21 21 22 23 23 22 20 20 20 20 18 17 17 17 18 18 18 18 18 18 18 18 19 21 22 23 23 24 26 27 26 26 28 29 28 28 29 28 28 30 29 29 31 33
24 23 20 21 28 33 33 32 30 28 30 33 33 31 32 34 35 34 31 28 27 27 26 23 21 20 20 20 20 21 21 20 20 21 21 20 19 19 19 20 20 20 20 20 21 22 20 19 18 19 20 19 17 17 18 18 19 19 19 18 18 18 19 21 22 21 20 20 22 25 27 27 28 29 29 28 29 31 31 31 34 34 33 34 35
28 28 27 29 33 35 37 36 32 30 30 31 30 30 32 35 35 33 30 28 27 26 25 23 22 21 21 21 22 22 22 20 20 21 22 21 21 20 20 20 20 19 19 19 20 19 18 17 17 18 19 19 18 17 17 19 19 19 19 19 18 19 22 24 22 20 20 20 22 25 26 27 28 28 27 26 28 31 31 32 35 35 30 27 27
25 24 26 29 32 35 39 38 32 28 29 29 29 31 34 35 35 32 29 27 27 26 25 23 22 22 23 24 25 25 24 23 22 22 23 23 23 22 22 22 21 20 19 19 19 17 16 16 16 16 18 18 18 18 19 19 19 18 18 19 19 22 25 25 22 20 20 22 24 24 25 26 26 24 24 25 27 29 28 28 32 32 25 18 18
26 30 33 34 34 36 39 38 32 29 29 30 31 33 35 35 34 31 28 27 26 25 24 24 23 24 25 27 27 27 26 26 24 23 24 24 23 24 25 24 23 22 19 18 19 17 16 15 14 14 17 18 18 19 19 17 17 16 17 19 20 24 25 23 21 22 23 24 25 25 25 24 21 21 23 24 25 27 26 28 31 30 24 19 19
32 32 31 32 36 39 40 38 34 31 30 31 32 34 35 34 31 28 26 25 25 24 23 23 24 26 27 27 27 27 28 28 26 26 26 25 23 24 26 25 24 22 18 19 20 18 16 15 14 14 16 17 17 18 16 15 15 15 16 18 21 23 22 20 20 23 25 26 27 27 27 24 20 21 23 23 24 27 28 29 31 29 26 25 26
35 31 26 24 29 35 38 37 34 31 29 30 31 31 32 31 27 24 23 23 23 24 24 23 25 26 27 26 26 27 27 28 28 27 28 26 23 23 27 27 23 19 19 20 21 19 17 15 14 14 15 16 16 16 15 14 14 15 16 18 19 18 17 18 20 21 22 24 25 26 27 25 22 21 23 25 26 29 30 30 31 31 29 30 32
34 32 29 24 24 28 34 33 30 28 27 26 27 27 28 26 24 23 22 22 22 23 24 25 25 26 26 26 26 26 26 27 27 27 27 27 23 23 27 27 22 19 21 21 20 19 17 15 15 15 14 15 16 15 15 14 15 17 18 16 14 12 14 18 20 20 20 22 22 22 23 23 22 23 25 27 28 30 32 33 33 34 33 33 35
32 31 29 24 20 21 25 27 26 24 23 22 23 23 23 22 21 21 21 21 21 23 24 24 25 26 26 26 26 26 26 25 24 23 23 24 23 22 25 26 23 21 22 21 20 19 16 15 17 16 14 14 15 15 15 16 17 17 14 11 9 10 13 16 18 19 21 21 21 21 22 22 24 26 26 28 30 31 34 36 36 38 37 37 39
29 26 26 25 22 20 22 24 24 22 21 20 20 20 20 20 20 20 20 20 21 23 25 24 23 24 25 26 26 25 23 21 20 19 19 20 20 20 23 25 23 20 20 21 21 18 15 15 17 16 15 16 16 16 17 17 15 11 8 7 7 9 13 16 17 18 19 20 20 21 22 22 24 27 28 29 31 34 36 38 39 40 41 41 42
24 23 23 24 24 24 26 25 22 20 19 18 18 19 20 20 21 20 19 20 21 24 26 24 22 22 24 26 25 23 20 19 18 18 19 20 20 20 23 23 19 16 17 19 18 15 15 16 17 16 16 16 17 17 16 11 7 5 5 6 7 9 13 16 17 16 17 17 18 19 21 22 24 26 29 30 32 35 36 37 39 41 42 43 43
18 16 16 17 20 24 26 23 20 18 18 18 19 21 21 21 21 20 20 21 22 24 25 22 20 21 22 23 23 21 19 19 18 18 20 22 23 23 22 19 15 15 17 17 15 15 16 16 16 16 16 17 18 15 9 5 4 3 5 6 7 9 13 15 15 15 16 16 17 18 21 23 25 27 28 29 31 33 35 37 39 41 42 43 43
15 14 15 17 21 25 25 23 19 18 18 18 19 21 21 21 21 20 21 22 22 23 22 20 18 19 20 21 21 20 19 19 18 19 20 22 24 23 19 16 15 17 17 15 14 15 15 15 15 16 16 16 12 6 5 6 3 3 4 5 7 10 13 13 13 14 15 16 17 18 21 24 26 26 27 28 29 31 33 35 38 40 42 43 43
18 19 21 22 23 23 23 21 19 17 16 17 18 20 20 20 20 20 21 21 22 22 20 18 18 18 19 20 20 19 19 19 19 20 21 21 23 20 15 15 17 17 14 13 14 14 14 13 13 12 10 6 5 9 8 5 3 3 3 5 7 9 10 10 10 11 13 15 16 19 21 23 25 26 27 29 29 30 31 33 35 37 41 41 38
19 19 21 22 20 19 19 18 16 16 16 17 18 19 19 19 19 20 21 21 21 20 19 19 18 18 18 18 17 17 18 19 18 18 18 20 20 17 14 14 15 14 12 13 14 13 11 9 6 4 5 8 10 9 6 3 2 3 4 5 7 9 9 9 9 10 11 13 16 19 21 23 24 26 27 29 30 30 31 33 33 35 38 37 34
13 11 14 14 14 16 18 18 16 16 17 18 18 18 18 18 18 19 19 19 18 18 18 17 16 15 15 15 15 15 17 18 16 16 16 17 18 17 14 13 12 12 12 12 11 9 6 6 6 6 8 9 8 5 3 1 2 3 4 6 8 10 10 10 11 11 12 14 16 19 21 22 24 26 26 28 30 30 31 32 33 34 35 33 31
8 6 8 10 13 16 18 18 17 17 18 19 18 17 17 18 19 19 18 17 16 15 15 14 13 12 12 12 13 14 16 17 16 14 14 15 16 15 13 11 11 11 10 9 8 7 8 9 8 6 6 5 3 2 0 1 2 3 5 7 10 11 10 10 11 11 12 14 16 18 20 21 23 25 25 26 29 31 31 31 31 31 32 31 28
8 7 11 14 17 18 19 19 19 19 19 18 18 17 17 17 17 17 16 15 13 12 12 11 9 9 9 10 10 12 14 15 14 11 10 12 13 12 10 10 10 10 9 7 7 9 9 8 7 5 4 3 2 2 2 2 3 4 6 8 10 11 11 11 11 11 13 15 16 18 20 21 22 23 24 24 26 29 30 30 30 30 30 29 27
7 11 16 19 21 21 21 21 19 18 18 17 17 17 17 15 14 13 12 11 10 9 7 6 5 6 6 7 7 9 10 10 9 7 8 10 11 9 9 9 9 8 7 7 9 9 8 7 6 5 3 3 4 3 3 3 4 5 7 9 10 11 10 10 10 11 12 14 16 18 19 21 22 22 23 24 25 26 27 28 29 28 27 27 28
11 15 18 20 20 20 20 19 18 18 18 17 17 18 17 16 13 10 8 8 7 6 5 4 3 4 4 5 6 7 7 6 5 5 7 8 8 7 7 8 7 6 6 8 10 9 7 6 6 5 5 5 5 4 4 4 4 5 6 8 9 9 9 9 9 11 12 13 15 17 18 20 22 23 24 24 24 24 24 26 26 26 24 24 26
18 16 17 17 16 15 15 16 16 17 16 16 17 17 16 15 13 10 9 8 6 6 5 4 4 4 4 5 6 5 5 4 4 5 6 7 6 6 5 6 6 6 7 9 9 8 8 7 7 6 5 5 4 3 3 4 4 5 6 7 9 9 9 9 9 11 12 13 15 16 18 19 21 22 24 25 24 24 24 24 25 24 22 21 22
14 13 14 14 12 12 12 12 13 14 14 14 14 14 13 13 12 12 11 10 8 7 6 5 4 4 5 5 5 4 3 4 4 4 5 5 4 3 5 7 8 8 9 9 8 8 8 7 7 6 4 3 3 2 2 3 5 6 7 7 9 10 10 10 10 11 12 13 15 16 17 19 20 21 22 22 23 23 23 24 24 22 21 20 20
15 14 12 10 9 9 9 10 10 11 11 11 11 11 12 12 12 12 12 10 9 8 7 6 5 5 6 6 5 4 3 3 3 3 4 3 1 3 7 9 10 11 11 10 9 8 8 7 7 6 4 3 2 1 2 3 5 7 8 8 9 9 9 10 11 11 12 13 14 16 17 18 20 22 22 22 22 22 22 23 24 23 22 21 20
14 11 9 8 8 7 7 7 7 7 7 8 9 10 10 10 10 10 10 9 9 9 8 8 6 7 8 8 6 5 4 3 2 1 1 2 1 2 6 8 10 11 11 10 9 8 8 7 6 5 3 1 1 2 3 4 6 7 8 8 8 8 8 8 9 11 12 13 14 16 17 19 20 21 21 21 22 23 24 24 24 24 25 24 22
10 8 8 7 6 6 6 7 7 7 7 7 8 9 9 9 9 9 9 9 9 9 10 10 9 10 10 9 7 6 6 4 2 1 1 1 1 3 6 8 9 9 9 9 8 7 7 6 4 3 1 0 1 2 4 6 7 8 8 8 7 6 7 7 8 9 11 12 14 16 17 19 20 21 21 21 22 23 24 24 24 25 25 25 23
10 9 8 7 7 7 8 8 8 7 7 7 7 8 8 8 8 8 8 8 9 10 11 11 12 12 11 9 7 6 6 5 4 3 3 3 4 5 6 7 6 6 7 7 7 5 5 5 3 2 0 1 2 4 5 7 8 7 7 7 6 6 6 7 8 10 12 13 14 16 17 19 20 20 21 21 22 23 23 23 23 23 22 23 22
11 9 9 9 10 10 9 8 6 6 6 6 7 7 8 8 7 7 8 9 10 11 11 12 13 12 10 9 7 6 6 6 6 6 6 7 7 7 6 6 6 6 7 7 7 5 4 4 3 1 1 1 3 5 6 7 7 6 6 6 5 5 6 8 9 11 12 13 14 15 17 19 20 20 21 22 22 22 22 22 23 22 21 21 22
10 11 11 11 10 9 8 7 6 5 5 5 6 6 7 8 7 6 8 9 9 9 9 11 11 11 10 8 7 7 8 9 9 9 10 10 10 9 8 7 6 6 7 7 7 6 4 4 3 1 0 2 4 6 6 5 5 6 5 5 5 5 6 8 9 10 11 13 14 15 17 18 19 20 21 22 22 23 22 22 22 23 22 23 22
11 13 12 10 8 8 7 6 5 4 4 4 4 5 6 7 6 6 8 9 8 8 9 9 9 9 9 7 6 7 9 9 8 9 11 12 11 10 8 7 6 6 6 6 6 5 5 4 3 1 0 3 5 7 6 5 5 5 5 4 4 5 6 8 9 10 11 12 13 15 16 17 19 19 20 21 22 23 23 23 23 23 23 23 23
12 11 10 9 8 7 6 6 5 4 4 5 5 6 6 6 6 6 7 8 8 7 8 9 10 10 9 7 6 7 8 7 7 10 12 12 11 9 8 7 7 6 6 6 6 6 5 4 3 2 0 2 5 7 7 6 6 5 4 4 4 5 7 8 9 10 11 12 13 14 15 16 17 18 19 20 21 22 23 23 23 23 23 23 23
11 10 9 9 9 7 6 5 5 5 6 6 6 7 6 5 6 7 8 8 8 7 7 9 11 11 9 8 8 8 7 7 9 11 12 11 10 8 7 6 5 5 6 7 7 6 5 4 3 2 1 2 5 7 7 6 5 5 4 4 4 5 6 8 9 10 11 12 13 14 15 15 16 17 18 19 20 21 23 23 23 23 23 23 23
10 10 10 10 9 7 6 5 5 6 7 7 7 7 6 5 6 7 7 7 7 8 8 10 12 12 11 10 10 9 8 8 9 11 12 10 9 7 6 5 4 5 6 7 7 6 5 4 3 2 1 3 6 7 7 6 5 5 4 3 4 5 6 7 8 9 10 11 12 13 14 15 15 16 17 17 18 19 21 22 22 22 22 22 22
11 11 10 10 9 8 6 6 5 6 7 7 6 6 7 6 6 6 7 7 8 9 10 12 13 14 13 12 12 11 10 10 11 11 11 10 8 7 7 6 5 6 6 6 6 6 5 3 2 1 2 3 5 7 8 7 6 5 5 4 3 4 6 7 7 8 9 10 11 12 13 13 14 14 15 15 15 17 19 21 21 22 22 21 21
10 10 10 9 9 8 7 6 6 6 6 6 6 6 7 6 7 8 9 9 9 10 11 13 15 16 15 15 14 13 13 12 12 12 11 10 9 9 8 7 7 8 7 6 6 6 5 3 2 0 1 3 4 7 9 9 7 6 6 5 3 3 4 6 7 7 8 9 11 11 11 12 12 13 13 13 13 15 18 19 20 21 21 21 21
10 10 10 9 9 8 8 7 7 8 8 8 8 9 9 9 10 11 11 11 11 12 13 14 16 17 17 17 16 16 15 14 13 12 12 12 12 11 10 9 9 10 9 8 7 7 5 4 3 1 1 2 3 6 9 10 9 8 7 6 4 3 3 5 6 7 7 9 10 9 9 10 11 10 11 12 12 14 16 17 18 19 20 21 22
9 8 9 9 10 9 9 9 9 10 11 11 11 12 12 13 14 14 14 14 14 14 15 15 16 18 19 19 19 18 17 16 15 14 14 14 14 13 12 10 10 11 12 11 9 8 7 5 4 2 1 1 2 4 7 10 10 9 7 6 5 3 3 4 5 5 7 9 9 7 7 9 9 9 10 11 11 12 14 15 16 18 19 20 22
7 6 7 8 9 10 11 12 12 13 13 14 14 15 15 15 16 16 16 17 17 17 18 18 18 18 19 20 21 21 21 19 17 17 17 16 15 15 13 11 11 12 13 12 10 8 7 6 5 4 3 2 0 2 5 8 10 10 9 8 6 4 3 3 4 4 6 8 8 6 6 8 9 8 9 10 10 11 13 14 14 16 18 20 21
8 6 6 6 6 7 8 9 10 12 13 14 15 15 16 17 17 19 20 21 21 21 21 21 21 21 21 22 22 23 23 22 20 19 19 18 17 16 15 13 12 13 14 14 11 9 8 7 6 5 4 3 2 1 3 6 8 10 11 11 10 7 4 4 3 3 5 7 7 5 5 8 9 8 9 11 10 11 12 13 14 16 18 19 20
Wind_Direction
199 199 199 199 200 201 201 202 206 210 212 213 213 213 213 213 213 214 216 214 211 215 220 224 230 236 239 244 245 245 248 250 251 251 252 257 261 264 264 262 262 263 263 266 269 272 273 275 278 278 276 270 260 254 255 257 258 259 263 269 271 269 260 245 235 266 289 299 302 307 315 317 318 323 322 321 324 326 325 325 324 322 320 318 316
199 198 197 197 200 201 201 204 207 209 211 212 213 213 214 215 215 218 221 219 215 217 223 228 234 239 242 247 250 252 254 253 253 253 252 257 261 264 264 261 261 260 260 265 271 276 279 279 280 282 279 273 265 259 260 262 259 259 261 264 268 271 267 258 252 259 283 296 302 306 314 316 313 318 321 318 320 323 323 323 323 321 320 318 315
197 196 196 198 201 202 204 206 208 209 211 212 214 214 216 217 218 223 226 221 218 221 226 231 235 241 247 252 255 258 259 258 257 253 251 255 258 260 263 262 260 259 260 265 272 277 279 279 281 281 279 275 269 265 266 268 265 262 263 264 265 270 272 267 263 262 273 290 299 303 310 312 310 314 318 317 318 321 321 321 321 320 320 319 316
193 194 198 201 202 203 207 208 208 210 212 213 214 216 218 220 224 228 227 221 220 224 229 234 240 246 252 256 259 261 261 261 260 256 250 251 254 257 261 262 261 261 262 265 269 273 276 277 279 279 277 274 271 270 271 273 274 269 266 266 265 268 271 271 269 269 270 282 294 298 302 304 306 311 316 316 318 320 320 320 320 318 319 320 317
192 196 198 199 201 204 207 208 209 211 213 213 214 216 219 222 228 230 226 222 222 229 236 243 248 250 252 254 256 258 258 260 261 257 250 247 252 256 258 260 262 264 265 265 267 270 274 276 278 278 277 274 272 272 275 278 280 277 272 270 270 269 270 270 271 273 270 272 285 295 299 299 302 309 314 314 314 318 319 320 320 318 317 318 317
192 193 196 199 202 205 205 207 210 212 213 213 214 216 217 219 221 223 226 226 226 236 245 247 248 249 248 248 249 251 252 254 255 252 246 245 250 256 259 261 263 266 267 266 265 268 272 276 279 279 276 275 274 274 277 282 282 280 278 278 277 274 271 269 270 274 274 273 281 291 296 298 300 306 314 314 311 311 314 317 319 318 316 315 315
188 191 198 203 203 204 204 208 211 212 213 213 214 215 215 214 214 217 223 227 231 240 243 241 244 245 243 243 245 246 248 250 253 249 243 244 251 256 261 262 263 267 270 268 266 266 269 275 280 279 275 274 276 278 280 282 281 281 283 284 284 279 272 270 270 273 275 276 282 288 293 297 298 300 308 314 312 309 309 312 315 317 316 314 312
187 191 199 203 202 202 204 209 212 212 213 214 215 216 216 219 221 221 223 228 235 240 238 236 239 239 239 242 242 242 245 251 257 254 247 249 255 258 261 262 263 266 268 268 267 265 267 274 279 280 276 273 274 278 281 280 280 283 287 288 287 281 274 272 274 275 275 276 283 288 290 294 296 298 305 312 312 311 312 311 309 310 313 312 309
190 192 197 201 200 200 203 208 210 211 212 213 215 216 220 229 231 228 227 233 239 239 234 233 234 236 238 238 235 237 245 254 260 261 258 258 259 260 262 262 262 264 266 267 268 266 266 271 278 282 278 272 272 275 278 280 282 286 290 290 287 282 276 275 275 274 274 277 282 286 287 289 292 296 303 307 306 306 309 310 306 306 309 309 307
192 193 197 200 197 194 200 205 208 209 210 212 214 215 221 230 234 233 233 237 239 235 231 229 232 237 236 232 232 238 247 256 262 263 263 261 259 259 262 263 263 264 266 268 269 268 267 270 277 283 279 271 270 273 278 283 284 285 288 287 284 281 278 276 275 272 272 278 281 283 283 282 286 292 297 302 304 303 304 307 306 307 309 307 306
194 195 199 198 189 188 198 203 205 208 211 212 213 215 223 230 235 236 236 237 236 231 228 229 233 238 237 235 240 247 252 257 259 259 259 258 258 260 263 266 266 267 270 271 271 270 269 269 275 282 279 271 269 274 279 282 282 283 285 283 279 276 274 274 274 272 274 278 280 281 278 276 284 291 295 300 303 301 300 304 304 305 306 305 304
196 197 199 192 179 185 198 201 201 206 210 213 215 217 226 233 236 236 236 236 234 228 227 231 237 243 244 243 249 253 256 257 258 259 260 258 259 263 266 267 267 268 270 271 270 269 268 268 274 280 280 274 273 278 280 280 282 284 283 281 277 274 272 274 275 275 276 277 278 279 278 276 281 289 294 298 299 297 299 301 301 299 299 296 294
199 198 196 182 172 184 197 198 199 204 207 215 222 223 229 235 235 235 235 235 234 230 229 233 241 248 250 251 256 260 260 260 260 261 261 260 262 265 266 267 265 265 267 269 269 269 267 268 273 279 280 277 277 280 281 281 285 287 284 279 275 274 276 279 281 281 279 277 275 276 278 276 277 286 294 296 293 294 297 299 299 297 292 290 289
188 187 183 161 169 190 199 195 198 208 213 219 226 228 232 235 235 235 236 235 234 231 230 236 245 251 252 254 260 265 265 264 267 268 265 262 263 266 266 264 260 260 264 269 270 270 268 268 272 277 279 278 277 279 281 284 288 289 286 280 277 277 281 287 291 290 284 278 274 276 280 280 279 285 294 296 291 290 292 294 296 295 290 290 290
171 179 182 175 182 195 198 193 198 213 220 222 227 231 235 237 236 235 234 234 234 233 235 241 248 252 253 255 261 266 267 267 272 274 270 264 264 267 263 257 254 258 263 268 271 270 268 267 270 276 278 278 278 278 280 285 288 288 285 281 281 282 286 294 298 294 288 283 279 280 284 286 285 286 292 296 295 294 295 296 296 295 292 292 292
174 183 187 185 188 195 196 197 202 213 220 225 229 234 238 238 236 234 233 234 235 236 239 245 250 252 253 254 257 260 263 264 267 271 271 269 268 266 258 252 252 256 261 267 270 268 263 262 267 274 277 279 280 278 279 284 285 284 283 282 282 284 290 296 298 291 288 288 287 286 287 288 288 289 291 296 299 301 302 301 298 297 294 292 293
167 184 193 191 191 196 198 200 204 210 220 230 234 237 238 238 236 234 233 233 235 238 242 247 251 253 252 252 252 254 257 260 260 263 269 274 274 265 254 250 250 252 259 269 269 262 256 258 266 273 279 282 282 278 279 280 279 279 280 282 285 289 294 298 297 293 293 294 293 291 290 289 288 288 290 296 304 307 303 296 295 296 293 289 291
172 194 202 197 195 200 200 199 202 210 221 230 235 236 236 236 235 235 235 236 238 242 246 250 253 253 252 251 251 254 259 262 262 261 265 274 276 264 251 247 248 249 258 269 266 257 254 259 269 278 284 286 283 279 277 276 276 277 278 283 289 292 296 300 302 302 303 303 301 299 298 298 292 288 293 301 311 313 304 294 294 294 289 286 291
188 201 206 200 198 200 200 200 204 213 223 230 232 233 233 234 235 237 238 240 243 247 252 255 256 255 253 252 252 253 258 263 264 262 261 268 272 261 247 243 244 247 258 267 262 255 254 261 272 283 287 286 281 276 273 272 275 276 277 284 289 290 295 303 306 307 308 307 306 305 305 305 297 293 301 309 315 316 308 300 298 293 288 288 291
190 198 204 207 203 199 197 200 206 215 224 230 231 232 233 234 236 239 243 245 246 248 252 255 257 255 252 251 252 253 257 262 263 263 263 266 266 254 243 240 241 248 260 263 258 255 257 264 276 286 288 284 276 271 270 272 274 276 280 283 282 284 297 305 306 308 309 305 304 304 304 304 299 300 310 314 316 318 314 308 303 296 291 290 289
192 194 197 207 215 207 200 201 210 221 229 232 231 232 235 237 239 244 248 247 245 246 250 253 253 253 252 253 254 256 260 263 265 267 269 268 262 248 238 236 241 252 260 258 254 256 261 269 283 292 290 282 275 272 274 276 278 281 282 278 274 285 304 309 309 311 309 305 305 304 304 304 304 308 314 315 318 320 316 312 308 303 296 290 287
193 191 189 199 220 224 213 212 221 231 233 232 232 233 236 240 245 249 250 248 247 249 252 253 252 253 256 257 259 263 266 267 269 272 271 267 259 244 235 237 243 252 257 256 254 257 264 276 288 295 292 283 277 276 280 283 284 281 273 263 270 298 312 313 313 313 311 310 310 308 308 311 312 313 315 316 319 320 316 314 312 308 303 295 291
188 186 188 196 211 228 235 233 232 235 235 233 233 235 239 243 246 248 247 247 248 251 256 258 257 259 262 263 265 268 268 267 267 266 262 260 254 243 240 244 246 244 247 252 256 260 271 283 291 296 293 284 281 283 287 287 281 268 250 251 280 306 315 316 316 315 314 315 314 311 311 315 316 315 314 315 317 318 317 316 316 313 309 306 303
183 187 196 201 207 227 243 241 234 236 237 235 235 238 241 243 242 242 242 243 244 251 259 263 263 263 265 266 267 266 264 262 261 258 255 257 255 250 249 250 245 239 243 251 258 269 280 288 293 295 290 286 288 290 288 278 257 233 237 264 287 303 313 317 318 319 320 320 318 315 314 315 316 315 315 316 318 319 320 321 321 318 315 314 312
189 206 217 220 225 236 242 238 236 240 238 235 238 239 238 236 235 235 237 239 243 250 257 261 260 259 261 264 265 265 264 261 260 260 260 261 262 261 255 246 239 240 246 253 264 276 283 289 294 294 290 290 293 290 272 223 194 220 250 259 271 292 308 316 318 323 326 324 321 318 316 319 321 320 321 322 322 324 326 325 324 323 323 324 323
205 221 226 227 231 235 235 234 234 235 233 235 239 239 236 235 235 235 236 239 245 251 255 258 258 256 258 262 266 269 268 265 264 267 267 266 268 265 251 231 231 240 246 256 268 276 283 289 292 291 291 291 286 256 184 167 184 235 248 248 264 290 308 317 321 326 330 327 324 321 321 326 329 329 331 330 327 329 331 327 325 326 329 332 333
198 206 211 214 219 225 227 226 224 222 225 230 232 234 236 237 237 237 239 242 245 249 251 252 252 253 257 262 267 271 273 273 273 273 271 269 270 262 236 218 228 240 248 262 272 278 284 288 289 288 283 264 197 165 162 174 207 239 257 269 287 305 318 324 326 330 330 329 329 328 329 333 335 335 336 334 332 334 334 329 326 328 332 337 338
187 203 212 212 213 219 220 217 214 216 219 221 222 226 230 232 236 240 243 246 247 248 248 248 249 252 257 263 268 272 275 279 281 280 277 273 266 250 221 211 226 241 257 269 273 278 281 278 271 248 188 161 155 160 171 195 240 276 292 305 322 332 335 335 335 335 335 336 337 336 337 338 339 339 338 337 335 336 338 335 331 331 335 342 342
172 201 213 207 206 210 208 205 206 210 212 213 214 218 223 227 234 240 245 247 248 249 250 253 256 260 264 268 271 272 276 283 288 289 284 272 257 241 223 221 236 251 262 267 267 265 247 211 186 165 155 153 157 167 184 250 297 316 332 343 347 347 347 350 350 348 348 349 346 344 343 341 341 341 341 338 337 338 340 339 336 335 339 344 342
142 188 217 212 205 203 201 199 200 205 210 210 210 216 224 230 233 236 240 243 245 247 252 257 263 268 270 272 271 271 275 281 287 290 280 258 242 232 229 239 251 254 254 256 251 229 195 178 170 160 154 155 158 154 149 328 339 354 356 356 357 356 358 2 2 359 357 356 353 351 348 344 342 343 341 338 337 340 343 342 340 340 344 345 339
145 195 224 218 206 202 204 205 204 205 208 210 211 217 224 228 230 233 237 240 244 248 253 258 261 262 263 265 265 267 271 275 278 278 261 238 229 229 235 246 249 242 237 236 222 200 182 168 160 155 154 147 117 93 67 29 16 5 358 0 4 5 6 9 8 4 3 0 357 356 353 349 344 342 341 339 339 341 343 343 344 346 346 344 339
178 215 226 218 205 202 206 207 204 203 203 205 210 215 217 218 221 226 232 238 242 245 250 256 255 247 247 251 254 262 272 275 270 257 235 227 230 236 242 244 236 224 215 207 195 185 177 167 154 147 144 127 106 93 74 44 21 4 358 2 5 8 10 11 9 8 7 3 359 358 356 352 347 344 344 345 343 342 343 342 344 347 346 344 343
224 222 219 214 207 205 206 204 201 202 202 204 207 210 214 217 217 215 217 224 230 235 241 248 241 234 240 245 249 261 272 272 258 239 230 231 235 240 243 237 222 205 199 196 184 170 165 162 148 132 122 111 98 82 66 45 22 9 3 359 0 3 4 3 4 7 8 6 3 1 358 354 351 349 348 349 346 344 344 343 342 344 347 345 343
238 222 206 202 199 199 200 197 197 200 203 206 210 214 220 226 227 221 214 213 217 223 225 224 220 227 240 250 257 263 259 246 240 236 238 243 248 248 241 224 202 184 186 191 181 162 152 145 133 125 120 110 98 75 54 36 15 8 2 353 349 351 351 353 0 5 6 8 6 4 0 358 356 352 349 348 348 347 345 344 342 341 343 344 342
225 197 185 185 184 186 191 194 198 205 208 211 218 223 228 232 235 231 225 223 223 219 211 207 215 231 243 250 254 254 238 227 233 247 260 273 272 233 203 188 173 162 163 166 162 153 150 143 137 137 134 125 119 89 42 23 8 2 355 345 341 341 343 350 358 3 7 10 8 6 4 1 359 356 351 348 347 347 344 342 341 340 340 344 344
183 172 171 177 183 191 197 202 207 212 214 217 225 231 233 234 234 232 231 229 225 217 209 205 212 230 239 240 241 236 220 214 229 265 295 320 313 205 194 179 162 153 153 153 151 150 149 146 143 139 129 119 116 44 2 357 355 352 347 340 337 338 341 350 357 2 8 11 11 8 7 4 1 360 356 351 348 347 345 343 342 342 344 348 350
172 169 169 176 184 189 191 192 194 198 205 214 225 230 231 231 230 230 231 228 223 220 213 206 211 227 231 232 236 228 204 196 216 277 339 8 16 211 199 178 162 154 151 151 153 152 147 144 142 136 121 93 28 356 345 343 342 340 339 339 339 339 344 352 358 5 10 13 14 12 8 6 5 2 358 353 350 350 350 349 347 346 349 354 358
162 163 166 171 178 186 190 186 181 184 194 207 218 222 220 217 216 221 225 224 223 224 218 210 215 224 222 219 221 211 192 188 205 199 140 113 135 165 171 166 160 156 154 152 153 152 145 140 138 132 118 24 350 347 340 337 333 333 340 349 349 346 351 358 5 12 17 19 18 15 11 8 8 6 2 357 353 352 353 353 352 349 350 355 358
153 159 167 176 188 201 203 194 184 186 196 205 213 214 212 210 207 211 217 218 217 219 217 213 216 221 217 208 205 201 192 197 214 215 192 177 167 166 169 167 161 160 158 158 160 159 149 142 139 136 163 302 338 342 338 335 334 338 352 3 2 359 8 16 18 21 24 23 20 18 16 12 10 10 8 3 359 357 356 355 356 354 349 350 353
162 172 183 190 193 196 198 195 191 197 207 213 217 220 224 226 222 214 210 207 205 206 210 213 218 220 213 202 200 205 209 215 226 232 221 202 192 189 189 186 180 173 168 166 167 164 155 146 147 159 193 329 350 347 341 339 343 352 3 12 18 24 29 31 28 27 27 25 22 20 18 15 14 14 12 9 6 4 2 359 360 360 357 354 356
169 180 184 186 187 189 192 194 200 212 221 225 227 229 232 234 231 217 203 197 194 198 208 215 215 209 201 198 206 220 231 238 242 239 226 210 202 199 198 198 197 189 181 176 172 168 163 155 155 172 212 9 4 359 357 355 359 8 18 31 46 47 40 35 33 30 27 25 24 22 19 18 17 15 12 11 12 13 12 9 6 6 5 4 4
173 177 176 177 180 186 189 192 201 212 216 216 216 219 222 225 220 205 194 190 190 196 205 208 203 195 192 201 218 230 241 249 245 228 214 205 200 198 197 198 201 198 194 188 182 178 178 172 166 174 8 11 9 8 10 10 9 18 37 59 65 54 43 37 34 30 26 24 24 23 20 18 20 19 16 16 17 17 16 14 13 12 12 11 10
169 168 170 174 179 182 185 190 194 192 185 185 189 192 200 210 209 200 192 188 190 195 198 196 193 190 193 204 218 229 240 246 231 211 202 197 195 195 191 189 191 194 194 190 187 189 194 188 178 173 47 12 7 7 11 15 17 25 43 64 67 53 42 36 31 27 24 22 22 22 20 19 20 22 21 20 21 21 21 19 17 16 16 15 16
161 163 168 174 177 178 178 181 187 185 181 180 181 182 185 197 204 202 194 187 187 196 201 198 194 192 195 203 212 221 229 227 216 208 202 198 196 193 186 183 189 194 191 185 185 192 200 198 188 178 108 21 11 11 15 21 24 26 37 59 67 56 42 33 27 23 22 19 17 18 19 18 20 22 22 23 24 24 24 23 20 19 19 19 20
165 166 168 170 173 179 180 177 179 181 177 175 175 174 175 182 193 198 196 191 194 205 211 207 202 201 201 205 211 215 215 214 215 215 212 209 205 199 193 192 193 189 186 184 187 195 205 206 198 176 83 40 27 25 25 26 27 28 30 47 60 52 41 33 24 19 20 18 13 12 14 15 19 22 23 24 25 27 28 27 25 24 23 22 21
164 165 167 170 177 186 189 184 181 181 180 178 175 172 170 174 183 195 204 209 214 218 217 212 208 207 206 207 210 210 210 214 221 224 221 216 209 205 204 200 189 181 184 188 193 201 209 208 196 166 54 45 40 33 29 26 26 26 24 27 37 37 33 30 23 19 19 14 9 9 10 11 15 21 23 23 25 30 33 33 31 30 29 27 25
162 164 168 173 182 191 194 192 193 196 195 194 193 190 190 193 196 202 211 220 229 232 228 219 213 210 208 208 208 208 209 214 221 223 219 212 206 202 198 194 190 192 196 197 197 203 211 210 201 188 45 52 49 39 34 31 28 21 15 13 8 7 16 20 20 21 18 8 3 6 9 9 10 17 23 24 26 31 36 37 37 36 36 34 32
170 174 180 185 192 198 202 206 213 217 217 218 219 217 217 218 217 217 220 224 229 233 233 227 220 216 212 211 210 209 210 215 220 219 212 206 201 196 192 193 201 207 208 204 202 207 214 215 209 197 86 66 54 43 38 36 31 22 10 2 349 336 353 8 11 13 11 4 0 4 9 9 8 14 23 28 31 35 39 41 42 43 43 42 39
172 181 193 200 205 211 215 218 223 229 232 233 232 229 229 230 232 233 232 230 228 229 231 230 228 223 219 216 215 212 211 214 219 217 210 206 204 200 198 203 212 214 212 210 210 211 214 215 211 203 183 113 64 44 37 34 31 25 16 3 345 318 317 348 359 3 3 2 2 6 11 10 11 19 32 37 39 40 42 44 47 49 50 48 45
161 175 193 207 218 227 231 232 237 242 245 246 245 243 241 240 241 242 243 240 235 232 230 230 231 230 226 223 219 215 212 214 217 215 211 210 210 210 210 212 214 214 213 214 213 212 214 217 214 210 211 212 151 37 31 28 25 23 19 11 354 323 293 309 336 347 353 357 5 14 18 14 17 31 43 47 48 47 48 50 53 54 56 54 52
145 154 163 181 206 224 231 236 242 246 249 253 254 253 252 251 252 253 252 250 247 243 238 235 234 232 230 228 224 218 213 212 214 214 212 212 214 217 218 215 210 207 209 211 212 212 214 216 213 212 216 220 224 317 17 19 16 14 14 10 1 343 300 279 297 324 343 353 4 19 29 27 30 41 50 55 57 56 56 58 60 61 61 60 60
Height
776 779 782 785 788 790 793 796 798 800 802 804 805 806 807 809 810 811 811 812 812 811 812 812 812 812 813 813 814 814 814 815 815 815 815 815 815 815 815 815 815 815 815 814 814 814 814 813 813 813 813 812 812 811 811 812 811 811 811 811 810 809 808 808 806 803 799 799 797 795 793 792 789 786 783 780 779 778 775 773 770 768 765 763 761
774 777 780 783 786 788 791 794 796 798 800 802 803 805 806 808 809 810 810 810 810 810 810 810 810 810 811 812 813 813 813 813 814 814 814 813 813 813 813 813 813 813 813 812 812 812 812 811 811 811 811 811 810 810 809 810 809 809 809 808 808 807 806 805 804 802 798 796 796 793 791 790 787 785 783 779 777 775 772 770 768 765 763 761 758
773 777 781 783 785 787 789 792 794 797 798 800 802 803 805 806 807 808 808 809 809 808 808 808 809 809 810 811 811 811 812 812 812 812 812 812 812 811 811 811 811 811 810 810 810 810 810 809 809 809 809 808 808 808 807 807 807 807 806 806 805 804 804 803 802 801 798 795 794 792 790 788 785 783 781 778 776 773 770 768 765 763 761 758 756
773 777 780 783 784 786 788 790 793 795 796 798 800 802 803 805 806 807 807 807 806 807 807 807 807 808 808 809 809 809 810 809 810 810 810 810 810 810 810 809 809 809 809 808 808 808 808 807 807 806 807 806 805 805 805 805 805 805 804 803 803 802 802 801 800 799 797 794 792 791 789 786 783 781 779 776 774 771 769 766 763 761 758 756 754
769 772 777 781 782 784 786 788 791 792 794 796 798 800 802 804 805 807 806 805 805 805 806 806 806 806 806 806 807 807 807 807 807 807 808 808 808 808 808 808 808 808 807 807 807 807 806 806 805 805 805 804 803 803 803 803 802 802 801 801 800 799 799 798 798 796 796 794 791 788 787 785 782 779 777 774 772 768 766 763 761 759 756 753 751
766 770 776 778 779 781 783 786 787 789 791 794 796 798 800 802 803 804 804 804 804 804 804 804 804 803 804 804 805 805 805 805 805 805 805 806 806 806 806 806 806 806 806 806 806 805 805 804 804 804 803 802 801 801 801 800 800 799 799 798 798 797 796 796 795 794 793 792 790 787 785 782 780 777 774 773 770 767 763 760 758 756 754 751 748
763 768 773 774 775 777 779 782 784 786 789 791 794 796 798 799 799 799 800 802 802 803 802 802 802 802 802 802 803 803 803 803 803 803 803 803 804 804 804 804 804 804 804 804 804 804 803 803 802 802 801 800 800 799 799 798 798 797 797 796 796 795 794 793 793 792 790 789 788 786 783 780 778 775 772 771 769 766 763 759 755 752 751 749 747
759 763 766 768 771 772 775 778 781 783 786 789 792 794 796 798 797 796 798 799 800 801 800 800 800 800 801 801 801 801 801 801 801 801 801 801 801 802 802 802 802 802 802 802 802 802 801 801 800 799 799 798 798 797 797 796 796 795 794 794 794 793 792 791 790 789 788 787 785 784 782 779 776 773 771 769 767 764 762 760 755 751 748 746 744
754 757 759 761 763 767 772 776 778 781 784 787 790 793 796 797 795 794 796 797 798 799 798 798 798 799 799 799 799 799 800 800 800 800 799 799 799 799 800 800 800 800 800 800 800 799 799 798 798 797 797 796 796 796 795 795 794 792 792 791 791 790 790 789 788 787 786 785 783 781 780 777 774 771 769 767 765 763 760 759 755 751 747 743 740
748 750 752 752 756 763 769 773 776 779 782 785 788 791 793 793 792 792 794 795 796 796 796 796 797 798 798 798 798 798 798 798 798 798 798 797 797 797 797 798 798 798 797 797 797 796 796 796 795 795 795 794 794 793 793 792 792 790 790 789 789 788 787 786 785 785 784 782 780 778 777 775 772 770 768 765 764 762 759 757 753 749 746 741 736
742 744 745 747 754 763 768 770 774 778 780 783 786 787 787 787 788 790 791 792 793 793 794 794 795 796 796 796 796 796 796 797 797 797 796 796 796 796 796 796 796 795 795 795 794 794 794 794 793 793 792 792 791 791 790 790 789 788 788 787 786 786 785 784 783 782 781 780 778 776 774 772 770 767 765 763 762 760 758 755 752 748 745 741 735
737 739 741 745 753 761 767 769 772 775 777 780 781 781 782 783 785 786 787 789 790 790 791 792 793 794 794 794 794 794 794 795 795 795 794 794 794 794 794 794 793 793 792 792 791 791 791 791 791 790 790 789 789 788 788 787 787 786 785 784 784 783 782 782 781 780 778 777 775 773 771 770 768 765 763 761 760 758 755 753 750 747 744 741 736
735 738 743 748 754 762 767 768 770 772 772 774 775 776 778 780 781 782 784 786 787 788 789 790 791 791 791 791 792 792 792 793 793 793 792 792 792 792 791 791 790 789 789 789 788 788 788 788 788 787 787 787 787 786 785 785 784 784 783 782 781 780 780 780 778 777 776 774 772 770 768 767 765 762 760 759 758 755 752 749 747 744 741 738 734
740 747 754 759 763 767 769 769 770 770 768 769 771 773 775 776 777 779 781 783 785 786 787 788 788 788 788 788 789 789 790 790 790 790 790 789 789 789 788 787 787 787 787 786 786 785 786 786 786 785 785 784 784 784 783 782 782 781 780 779 778 778 777 777 776 774 773 771 769 766 764 764 763 760 758 757 755 752 749 746 743 740 737 733 730
739 746 753 758 761 764 766 766 765 764 764 766 768 770 771 773 774 777 779 780 781 782 783 784 784 784 785 786 786 786 786 787 788 788 787 787 787 786 785 784 784 785 784 784 783 783 783 783 783 783 782 782 782 781 781 780 780 779 778 777 776 775 775 774 773 771 770 768 766 764 762 760 759 757 755 753 751 749 747 744 740 736 732 728 725
736 743 748 751 755 759 762 762 759 759 762 764 765 766 768 770 772 774 776 777 777 778 779 780 780 781 782 782 783 782 782 783 783 784 784 784 784 783 782 782 782 782 781 781 781 780 781 781 781 780 779 779 779 779 778 778 777 776 775 774 773 773 771 771 770 768 767 765 763 761 759 757 756 754 752 751 748 746 744 742 737 733 729 725 719
739 746 750 750 753 756 759 758 757 758 760 761 762 763 765 767 770 772 773 773 774 775 776 776 777 778 778 778 778 778 779 779 779 780 780 781 780 780 780 780 779 779 778 778 778 778 778 778 778 778 777 776 776 776 776 775 775 774 773 772 771 770 768 768 767 765 764 762 760 758 756 754 753 751 749 748 745 743 742 739 733 730 727 722 715
742 745 746 746 748 753 756 755 755 756 757 758 759 761 763 766 768 769 770 770 771 772 772 773 774 774 774 775 775 776 776 776 777 777 776 777 777 777 777 776 776 776 776 776 776 776 776 776 776 776 775 774 774 773 773 773 772 772 771 770 769 767 765 765 763 761 760 758 756 754 752 751 750 748 746 744 742 741 739 735 730 727 724 718 712
737 742 744 744 744 748 751 751 752 753 755 755 757 759 761 764 766 767 768 768 768 769 770 770 771 771 771 772 773 773 773 773 774 773 772 773 773 773 773 773 773 773 773 773 773 773 774 774 774 773 773 772 771 770 770 770 769 769 769 768 767 765 764 763 761 759 757 754 752 750 748 747 747 745 743 741 739 737 735 731 728 724 720 714 709
729 735 742 746 748 747 747 748 750 751 752 753 755 758 760 761 763 764 765 765 766 767 767 768 768 769 769 769 770 770 770 770 770 770 769 770 769 770 770 770 770 771 771 770 770 770 771 771 771 771 771 770 769 769 768 768 767 767 766 766 765 763 762 761 759 757 755 752 750 748 746 744 743 742 740 738 736 733 730 728 725 721 717 711 705
726 731 737 745 750 749 746 747 749 750 751 753 754 756 757 759 761 762 762 763 764 765 765 765 765 766 767 767 767 767 767 767 767 767 767 767 766 766 766 767 768 768 768 767 768 768 768 768 769 769 768 768 767 767 766 766 765 764 763 763 763 762 761 759 757 756 754 751 749 747 744 742 741 739 737 735 732 730 726 724 720 717 713 707 700
726 730 734 739 747 749 747 747 748 749 751 752 753 754 756 757 759 760 761 762 762 763 763 763 763 764 764 764 764 764 765 764 764 764 764 764 763 763 763 764 765 765 765 766 767 766 766 765 766 766 765 765 765 764 764 763 762 761 761 761 762 761 760 758 756 754 752 750 748 746 743 741 739 736 734 732 729 726 723 719 716 711 707 703 696
727 732 734 736 741 746 747 747 748 748 749 750 751 752 754 755 756 758 759 760 761 761 760 760 761 761 761 761 761 762 763 763 762 762 762 761 761 761 761 761 762 763 764 766 765 764 764 763 763 763 763 763 762 762 761 760 759 759 759 760 760 759 758 756 754 753 751 749 747 744 742 740 738 735 732 729 726 723 719 715 711 705 700 694 688
728 732 734 735 738 743 746 746 746 745 746 748 749 751 752 753 755 756 757 758 759 758 758 758 759 759 759 759 759 760 761 761 760 760 760 759 759 759 759 760 761 763 764 764 763 763 762 761 761 761 761 760 760 759 759 758 758 758 759 759 759 758 756 755 753 752 750 748 746 744 741 739 737 733 730 727 723 719 716 711 706 701 694 687 679
729 733 735 736 738 743 745 744 743 742 744 746 747 748 750 752 753 754 755 756 756 756 756 756 757 757 757 757 757 758 759 759 759 758 758 757 757 757 758 759 761 762 762 762 762 761 760 760 759 759 758 758 757 757 757 757 757 757 757 757 757 756 755 754 752 750 749 747 745 743 740 738 735 732 728 724 721 717 713 708 702 696 689 680 671
729 732 734 735 738 741 742 741 740 741 742 744 746 748 749 750 751 752 753 753 754 754 754 755 755 756 756 756 756 756 756 756 756 756 755 755 755 755 756 758 759 759 759 760 760 759 759 758 757 756 756 755 755 756 757 757 757 757 756 756 755 755 754 752 751 749 747 745 744 741 739 736 733 730 726 722 719 715 711 706 699 691 683 675 665
727 729 731 733 735 738 738 738 739 740 742 744 746 748 749 750 750 751 751 751 752 752 753 754 754 754 754 754 754 754 754 754 754 753 753 752 752 753 754 756 757 757 758 759 758 758 758 757 755 755 754 754 754 755 756 756 756 756 755 755 754 753 752 751 750 748 747 745 743 740 738 735 732 728 725 721 717 714 711 706 699 690 682 674 665
724 726 729 730 732 734 736 737 739 740 742 743 745 747 748 749 749 749 750 750 751 751 752 752 752 753 753 753 753 753 752 752 751 751 751 750 751 751 753 755 756 757 757 758 757 757 757 756 755 754 753 753 754 755 755 756 756 755 755 754 753 752 751 750 748 747 746 744 742 739 737 734 731 728 724 720 716 713 710 705 699 691 683 675 668
721 726 729 729 730 732 734 736 737 738 740 742 744 745 747 748 748 749 749 750 750 750 750 750 751 751 752 752 752 752 751 750 750 750 750 749 750 751 752 754 755 755 756 756 756 756 755 755 754 754 753 754 754 754 755 755 755 754 754 753 752 751 749 748 747 746 744 743 741 739 736 733 730 727 723 719 715 712 709 705 699 692 685 678 673
723 728 730 730 731 733 735 736 736 737 739 741 743 744 746 747 748 748 748 749 749 749 749 749 750 750 750 751 751 750 750 749 749 749 749 749 749 750 752 753 753 754 754 755 755 754 754 753 753 753 753 754 754 754 755 754 754 754 753 752 751 749 748 747 746 745 744 742 741 739 736 733 730 727 724 720 715 711 708 705 700 694 687 682 676
726 730 731 732 732 734 736 737 737 737 739 740 742 744 745 746 747 747 747 748 748 748 748 748 749 749 749 749 749 749 749 749 748 748 748 748 749 750 751 752 752 752 753 753 753 753 753 753 753 753 753 754 753 754 754 753 753 753 752 751 750 749 748 747 746 744 743 742 740 738 736 733 731 728 724 720 716 712 708 705 700 696 691 686 680
728 730 731 732 733 734 736 736 736 737 738 740 742 743 744 746 746 746 746 746 746 747 748 748 748 748 748 748 748 748 748 748 748 748 748 748 749 749 750 751 751 751 752 752 752 753 752 753 753 753 753 753 753 753 753 753 753 752 751 750 750 748 748 747 745 744 743 741 739 737 735 733 731 728 724 721 717 713 710 706 702 698 694 688 683
729 729 730 731 732 734 735 735 735 736 738 739 741 742 743 744 744 744 745 745 746 746 747 747 747 747 747 748 748 747 747 747 747 748 748 748 749 749 749 750 750 751 751 751 751 752 752 752 753 753 753 753 753 753 753 752 752 752 751 750 749 748 748 747 745 744 743 741 739 737 735 733 730 727 724 721 718 715 711 707 704 700 696 692 686
727 727 728 729 731 733 734 734 735 736 737 738 739 740 741 742 742 742 743 744 745 746 746 747 747 747 747 748 747 747 747 747 747 748 747 748 748 749 749 749 750 750 751 751 751 751 752 752 753 753 753 754 753 753 753 752 752 751 750 750 749 749 748 747 745 744 742 740 739 737 735 733 730 727 724 721 718 715 712 709 705 702 698 695 690
725 726 727 728 730 732 733 733 734 735 736 737 738 739 740 740 741 741 742 743 744 745 745 746 747 747 747 747 747 747 747 747 747 747 747 747 748 748 748 749 749 749 750 750 750 751 751 752 753 753 754 754 753 753 753 752 752 751 750 749 749 748 747 746 745 744 742 740 738 736 734 732 730 727 725 722 719 716 713 710 707 703 700 697 693
723 724 726 727 729 730 731 732 733 734 735 736 737 738 739 739 740 741 741 742 743 744 745 746 747 747 747 747 747 747 748 747 747 747 747 747 748 748 748 748 748 749 749 750 750 750 751 752 752 753 753 753 753 753 752 752 751 750 750 749 749 748 747 746 744 743 742 740 738 736 734 732 730 727 725 723 720 717 714 711 707 704 700 697 693
722 723 724 726 728 729 731 732 733 733 734 735 736 737 737 738 739 740 741 742 743 743 745 745 746 747 747 747 747 747 748 748 748 747 748 748 748 748 748 748 748 748 749 749 750 750 751 752 752 753 753 753 753 753 752 752 751 750 749 749 748 747 747 746 744 743 742 740 738 736 734 732 730 727 725 723 720 718 714 711 707 704 700 697 693
722 723 725 727 729 730 732 732 732 733 733 734 735 736 736 738 739 740 740 741 742 743 744 744 745 746 746 746 747 747 747 747 748 748 748 748 749 749 749 748 748 749 749 749 749 750 750 751 752 753 753 753 753 753 752 751 751 750 749 749 748 747 746 745 744 743 742 740 739 737 735 733 730 728 726 724 721 718 715 712 708 705 701 698 695
721 723 725 727 729 731 732 732 731 732 733 733 734 735 736 737 738 739 739 740 741 742 743 743 744 745 745 746 746 747 747 747 748 748 749 749 749 749 749 749 749 749 749 749 750 750 751 752 752 753 753 753 753 753 752 751 750 750 749 748 747 746 746 745 744 743 742 740 739 737 735 733 730 728 726 724 722 719 716 713 710 707 704 700 697
719 722 724 725 727 730 731 731 731 731 732 733 734 734 735 736 737 737 738 739 740 741 742 742 743 744 745 746 746 747 747 748 748 748 749 749 750 750 750 749 749 749 749 749 750 750 751 752 752 753 753 753 753 753 752 751 750 749 748 748 747 746 746 745 744 743 742 741 739 737 735 733 731 729 727 724 722 720 717 714 711 708 706 703 699
719 721 723 725 727 728 728 729 730 731 731 732 733 734 734 735 735 736 738 738 739 740 741 742 742 743 744 745 746 747 747 748 748 748 749 749 750 750 750 749 749 749 749 750 750 751 751 752 753 753 753 753 753 752 751 751 750 749 748 748 747 747 746 745 744 744 742 741 740 738 736 734 732 730 728 725 723 720 718 715 712 709 706 704 701
719 721 723 724 726 726 727 729 730 730 731 732 732 733 734 734 735 736 737 738 739 740 740 741 742 743 744 745 746 746 747 747 747 747 748 749 749 749 749 749 749 749 749 750 750 751 752 752 753 753 753 753 753 752 751 751 750 749 748 748 747 747 746 746 745 744 743 741 740 738 737 735 733 731 729 727 724 721 719 716 713 710 708 705 702
719 721 723 724 725 726 727 729 729 730 731 731 732 733 733 734 735 736 736 737 738 739 739 741 742 743 744 745 745 745 746 746 746 747 748 748 749 749 749 749 749 749 750 750 750 751 752 752 752 753 753 753 753 752 751 750 750 749 749 748 748 747 747 746 745 744 743 742 740 739 737 736 734 732 730 728 725 723 720 717 715 712 710 707 705
720 721 723 724 725 726 727 728 729 730 731 731 732 733 733 734 735 735 736 737 738 738 739 740 741 742 743 744 744 745 745 745 746 747 747 748 748 749 749 749 749 749 750 750 751 751 752 752 753 753 753 753 752 752 751 750 750 749 749 748 748 748 747 746 745 744 743 742 741 739 738 736 735 733 731 729 727 724 722 719 717 714 712 709 707
720 721 723 724 725 726 727 728 729 730 730 731 732 733 733 734 734 735 736 737 737 738 739 740 741 742 742 743 743 744 745 745 746 746 747 747 748 748 749 749 749 749 750 750 751 752 752 752 752 753 753 752 752 751 751 750 750 749 749 748 748 748 747 746 746 745 744 743 741 740 739 737 736 734 732 730 728 726 724 722 719 717 714 712 710
720 721 722 724 725 726 727 728 729 730 730 731 732 732 733 734 734 735 736 736 737 738 738 739 740 741 742 742 743 743 744 745 745 746 746 747 748 748 748 749 749 749 750 750 751 751 752 752 752 752 752 752 752 751 751 750 749 749 749 748 748 748 747 747 746 745 744 743 742 741 739 738 737 735 734 732 730 728 726 723 721 719 717 715 713
720 721 722 724 725 726 727 728 728 729 730 731 732 732 733 734 734 735 736 736 736 737 737 738 739 740 740 741 742 742 743 744 744 745 746 747 747 748 748 748 749 749 750 750 751 751 751 752 752 752 752 752 752 752 751 750 750 749 749 748 748 748 747 747 746 745 745 744 743 741 740 739 737 736 734 733 731 729 727 725 723 721 720 718 715
720 721 723 724 724 726 727 727 728 729 730 730 731 732 733 733 734 734 735 735 736 736 736 737 737 738 739 740 741 741 742 743 743 744 745 746 746 747 747 748 748 749 749 749 750 750 751 751 751 752 752 752 752 752 752 751 750 750 749 749 748 748 747 747 746 746 745 744 743 742 741 740 738 737 735 734 732 730 729 727 725 724 722 720 718
720 721 722 723 724 725 726 727 728 729 729 730 731 731 732 732 733 733 734 734 735 735 735 735 736 736 737 738 739 740 741 742 742 743 744 744 745 746 746 747 747 748 748 749 749 750 750 751 751 751 751 752 752 752 752 751 751 750 749 749 748 748 747 747 746 746 745 745 744 743 742 740 739 738 736 735 733 732 730 729 727 726 724 722 720
720 721 722 723 724 725 726 727 728 729 729 730 730 730 731 731 731 732 732 732 733 733 733 733 734 734 735 736 737 738 739 740 740 741 742 743 744 745 745 746 746 747 747 748 748 749 749 750 750 751 751 751 751 751 751 751 750 750 749 749 748 747 747 747 746 746 746 745 744 743 742 741 740 738 737 736 734 733 731 730 729 728 726 725 723
720 721 722 723 723 724 725 726 727 728 728 729 729 729 729 730 730 730 730 730 730 730 731 731 731 731 732 733 734 735 736 738 739 740 741 742 743 744 744 745 745 745 746 747 748 748 749 749 750 750 751 751 751 751 751 751 750 750 749 749 748 747 747 747 746 746 746 745 744 744 743 742 740 739 738 737 736 734 733 732 731 730 728 727 726